Total_Precipitation_Accumulation
0.00 0.01 0.04 0.06 0.08 0.05 0.03 0.02 0.03 0.03 0.04 0.02 0.01 0.01 0.01 0.00 0.00 0.00 0.00 0.00 0.00 0.00 0.00 0.00 0.00 0.00 0.00 0.00 0.00 0.00 0.01 0.01 0.01 0.01 0.02 0.03 0.04 0.05 0.06 0.07 0.08 0.13 0.19 0.21
0.00 0.01 0.02 0.05 0.07 0.04 0.02 0.02 0.02 0.02 0.02 0.02 0.02 0.02 0.01 0.01 0.01 0.01 0.01 0.00 0.00 0.00 0.00 0.00 0.00 0.00 0.00 0.01 0.01 0.01 0.01 0.02 0.02 0.03 0.04 0.05 0.05 0.06 0.07 0.09 0.12 0.15 0.19 0.24
0.00 0.02 0.02 0.07 0.05 0.03 0.03 0.03 0.03 0.04 0.04 0.04 0.04 0.04 0.03 0.02 0.02 0.02 0.01 0.01 0.01 0.01 0.00 0.00 0.00 0.01 0.01 0.01 0.01 0.01 0.01 0.02 0.03 0.05 0.06 0.07 0.07 0.09 0.11 0.14 0.17 0.18 0.20 0.27
0.01 0.02 0.05 0.07 0.03 0.04 0.04 0.04 0.05 0.09 0.09 0.07 0.06 0.07 0.07 0.05 0.03 0.02 0.02 0.01 0.01 0.01 0.01 0.01 0.01 0.01 0.01 0.01 0.02 0.02 0.02 0.03 0.04 0.06 0.08 0.10 0.12 0.15 0.19 0.22 0.22 0.22 0.22 0.28
0.03 0.04 0.05 0.05 0.06 0.06 0.06 0.07 0.08 0.11 0.10 0.08 0.07 0.06 0.06 0.06 0.06 0.05 0.04 0.04 0.04 0.04 0.05 0.05 0.04 0.05 0.04 0.04 0.04 0.04 0.04 0.06 0.08 0.11 0.14 0.17 0.20 0.24 0.27 0.28 0.26 0.25 0.24 0.28
0.06 0.07 0.09 0.08 0.10 0.09 0.08 0.11 0.14 0.18 0.17 0.14 0.11 0.14 0.14 0.11 0.09 0.08 0.07 0.05 0.05 0.06 0.06 0.05 0.06 0.06 0.08 0.08 0.08 0.09 0.10 0.12 0.14 0.19 0.25 0.28 0.32 0.36 0.37 0.37 0.32 0.28 0.24 0.27
0.07 0.07 0.08 0.11 0.11 0.11 0.17 0.22 0.26 0.28 0.22 0.20 0.19 0.17 0.17 0.13 0.09 0.08 0.07 0.06 0.05 0.04 0.04 0.04 0.06 0.08 0.12 0.14 0.15 0.16 0.17 0.19 0.21 0.27 0.33 0.34 0.37 0.39 0.41 0.40 0.37 0.35 0.31 0.30
0.16 0.20 0.21 0.19 0.14 0.18 0.23 0.23 0.23 0.20 0.14 0.13 0.11 0.11 0.13 0.09 0.07 0.06 0.05 0.04 0.03 0.04 0.06 0.07 0.08 0.13 0.17 0.18 0.18 0.19 0.20 0.22 0.25 0.28 0.29 0.28 0.35 0.38 0.41 0.43 0.40 0.37 0.36 0.34
0.19 0.24 0.24 0.21 0.20 0.19 0.16 0.11 0.07 0.05 0.04 0.03 0.04 0.07 0.06 0.04 0.04 0.03 0.03 0.02 0.02 0.03 0.05 0.07 0.10 0.16 0.19 0.19 0.19 0.21 0.23 0.25 0.26 0.25 0.26 0.30 0.36 0.37 0.39 0.41 0.39 0.33 0.30 0.34
0.15 0.20 0.19 0.19 0.17 0.12 0.08 0.05 0.03 0.02 0.03 0.03 0.03 0.03 0.02 0.01 0.01 0.01 0.01 0.01 0.02 0.03 0.06 0.08 0.09 0.11 0.14 0.17 0.21 0.24 0.25 0.25 0.24 0.26 0.27 0.33 0.40 0.42 0.44 0.42 0.37 0.31 0.28 0.34
0.13 0.20 0.21 0.18 0.13 0.08 0.05 0.03 0.02 0.02 0.03 0.03 0.03 0.02 0.02 0.01 0.01 0.01 0.01 0.02 0.03 0.07 0.10 0.11 0.09 0.08 0.09 0.14 0.22 0.30 0.31 0.29 0.27 0.28 0.31 0.33 0.37 0.40 0.37 0.36 0.30 0.28 0.29 0.37
0.10 0.17 0.23 0.22 0.15 0.09 0.06 0.05 0.05 0.04 0.04 0.03 0.02 0.02 0.01 0.01 0.00 0.01 0.02 0.05 0.08 0.12 0.13 0.11 0.09 0.08 0.10 0.17 0.27 0.37 0.37 0.31 0.29 0.29 0.33 0.35 0.35 0.36 0.30 0.21 0.19 0.18 0.19 0.24
0.08 0.17 0.21 0.18 0.14 0.12 0.09 0.07 0.05 0.05 0.04 0.03 0.01 0.01 0.01 0.00 0.01 0.02 0.05 0.11 0.19 0.22 0.17 0.12 0.10 0.10 0.12 0.17 0.25 0.34 0.37 0.33 0.29 0.28 0.31 0.31 0.31 0.35 0.38 0.32 0.17 0.13 0.15 0.16
0.14 0.17 0.17 0.12 0.10 0.09 0.07 0.06 0.04 0.03 0.02 0.01 0.01 0.01 0.01 0.01 0.02 0.05 0.12 0.23 0.30 0.23 0.14 0.11 0.10 0.10 0.13 0.18 0.24 0.30 0.32 0.31 0.29 0.30 0.31 0.29 0.27 0.29 0.35 0.43 0.40 0.31 0.22 0.17
0.16 0.14 0.14 0.08 0.06 0.05 0.04 0.03 0.02 0.01 0.01 0.01 0.01 0.01 0.01 0.02 0.05 0.10 0.20 0.31 0.27 0.16 0.10 0.09 0.10 0.12 0.16 0.19 0.23 0.28 0.29 0.25 0.21 0.21 0.24 0.26 0.27 0.29 0.32 0.37 0.43 0.49 0.41 0.25
0.12 0.10 0.08 0.06 0.05 0.03 0.02 0.01 0.01 0.01 0.01 0.02 0.02 0.02 0.02 0.03 0.06 0.12 0.21 0.25 0.22 0.15 0.10 0.10 0.10 0.13 0.16 0.19 0.22 0.23 0.22 0.21 0.15 0.12 0.15 0.22 0.28 0.31 0.31 0.35 0.42 0.51 0.48 0.32
0.10 0.07 0.06 0.05 0.04 0.04 0.03 0.03 0.02 0.02 0.02 0.03 0.02 0.02 0.02 0.04 0.09 0.16 0.19 0.16 0.13 0.09 0.08 0.09 0.09 0.12 0.15 0.19 0.20 0.20 0.17 0.15 0.13 0.09 0.14 0.23 0.28 0.29 0.30 0.37 0.45 0.54 0.50 0.33
0.06 0.04 0.04 0.05 0.06 0.06 0.06 0.05 0.04 0.03 0.03 0.02 0.02 0.02 0.02 0.05 0.12 0.21 0.19 0.14 0.10 0.06 0.05 0.05 0.07 0.10 0.14 0.15 0.16 0.17 0.16 0.15 0.14 0.14 0.21 0.26 0.25 0.31 0.41 0.48 0.52 0.57 0.52 0.39
0.06 0.07 0.07 0.06 0.05 0.05 0.04 0.03 0.03 0.02 0.02 0.02 0.02 0.01 0.01 0.03 0.10 0.18 0.16 0.16 0.15 0.10 0.06 0.05 0.07 0.09 0.13 0.11 0.11 0.16 0.21 0.21 0.18 0.20 0.27 0.26 0.28 0.36 0.48 0.53 0.54 0.56 0.55 0.54
0.05 0.05 0.04 0.04 0.03 0.03 0.02 0.02 0.02 0.01 0.01 0.01 0.01 0.01 0.01 0.02 0.07 0.15 0.15 0.15 0.16 0.13 0.09 0.06 0.05 0.07 0.09 0.08 0.10 0.13 0.17 0.20 0.20 0.19 0.21 0.25 0.30 0.34 0.39 0.44 0.46 0.48 0.50 0.52
0.04 0.03 0.03 0.02 0.01 0.01 0.01 0.00 0.00 0.00 0.00 0.00 0.00 0.00 0.01 0.02 0.04 0.12 0.20 0.18 0.14 0.12 0.10 0.10 0.06 0.06 0.06 0.08 0.11 0.14 0.18 0.21 0.21 0.22 0.21 0.23 0.28 0.33 0.39 0.43 0.47 0.47 0.47 0.49
0.02 0.01 0.00 0.00 0.00 0.00 0.00 0.00 0.00 0.00 0.00 0.00 0.00 0.00 0.01 0.02 0.04 0.06 0.16 0.22 0.19 0.20 0.13 0.09 0.07 0.06 0.07 0.07 0.10 0.15 0.19 0.23 0.28 0.31 0.30 0.28 0.31 0.38 0.43 0.43 0.45 0.44 0.47 0.50
0.00 0.00 0.00 0.00 0.00 0.00 0.00 0.00 0.00 0.00 0.00 0.00 0.00 0.01 0.02 0.03 0.05 0.08 0.11 0.15 0.19 0.24 0.18 0.13 0.10 0.08 0.08 0.08 0.12 0.19 0.21 0.22 0.26 0.30 0.31 0.29 0.29 0.32 0.35 0.36 0.41 0.43 0.45 0.49
0.00 0.00 0.00 0.00 0.00 0.00 0.00 0.00 0.00 0.00 0.00 0.01 0.01 0.01 0.02 0.03 0.05 0.09 0.12 0.15 0.19 0.20 0.19 0.20 0.16 0.14 0.13 0.13 0.19 0.23 0.24 0.24 0.24 0.24 0.23 0.22 0.22 0.25 0.34 0.38 0.38 0.36 0.38 0.41
0.01 0.01 0.01 0.01 0.01 0.01 0.01 0.01 0.00 0.01 0.01 0.01 0.02 0.03 0.04 0.08 0.14 0.16 0.17 0.18 0.21 0.19 0.21 0.23 0.20 0.20 0.20 0.22 0.23 0.23 0.24 0.27 0.29 0.28 0.26 0.26 0.30 0.34 0.37 0.35 0.31 0.28 0.28 0.33
0.01 0.01 0.01 0.02 0.02 0.02 0.02 0.02 0.02 0.04 0.05 0.06 0.07 0.08 0.10 0.13 0.18 0.24 0.27 0.28 0.27 0.24 0.25 0.24 0.21 0.20 0.19 0.22 0.26 0.28 0.28 0.31 0.34 0.35 0.35 0.35 0.41 0.43 0.34 0.26 0.22 0.23 0.24 0.27
0.02 0.03 0.03 0.03 0.03 0.04 0.04 0.05 0.07 0.08 0.10 0.12 0.12 0.16 0.20 0.24 0.28 0.30 0.30 0.29 0.27 0.26 0.25 0.22 0.18 0.16 0.14 0.17 0.20 0.21 0.23 0.28 0.34 0.40 0.44 0.43 0.41 0.39 0.30 0.24 0.21 0.22 0.27 0.28